Total_Precipitation_Accumulation
1.79 1.53 1.32 1.01 1.42 2.46 1.36 1.47 2.04 1.73 2.21 3.35 2.68 1.76 1.44 1.49 0.95 0.65 0.55 0.26 0.26 0.25 0.25 0.31 0.71 0.78 0.35 0.09 0.03 0.16 0.51 1.36 1.58 1.60 0.90 0.74 1.07 1.18 1.28 2.27 1.81 1.41 1.36 1.47
1.89 1.79 1.54 1.16 1.33 2.39 1.76 1.53 1.88 2.48 1.68 1.70 1.21 1.14 1.18 1.22 0.71 0.56 0.62 0.35 0.25 0.22 0.22 0.36 0.27 0.65 0.17 0.02 0.03 0.41 0.65 1.32 1.52 1.46 1.13 0.83 1.31 1.04 1.10 1.44 2.16 2.09 1.90 1.66
1.56 1.38 1.20 1.36 1.65 1.91 1.88 1.68 2.26 3.00 2.61 0.89 0.85 1.35 1.45 1.09 0.60 0.49 0.62 0.39 0.28 0.25 0.13 0.11 0.21 0.74 0.20 0.03 0.07 0.15 0.62 1.15 1.28 1.24 1.01 0.92 1.20 0.73 1.01 1.85 2.10 1.51 1.77 1.12
1.72 1.28 0.85 0.86 1.61 1.52 1.61 1.56 1.35 1.00 0.88 0.70 0.46 0.99 1.16 0.90 0.87 0.56 0.70 0.59 0.38 0.62 0.42 0.14 0.08 0.52 0.43 0.19 0.15 0.11 0.62 1.45 1.02 0.65 0.40 0.47 0.71 0.73 0.74 1.53 1.26 1.37 1.04 0.68
2.01 1.79 1.07 0.71 0.99 1.50 1.31 1.16 1.39 0.72 0.28 0.25 0.32 0.79 0.94 0.76 0.69 0.69 0.51 0.53 0.30 0.37 0.45 0.59 0.39 0.29 0.46 0.43 0.12 0.26 0.49 1.01 0.83 0.70 0.25 0.39 0.53 0.60 0.46 0.80 0.72 0.77 0.55 0.56
1.56 1.32 1.31 1.33 1.37 2.17 1.60 1.06 1.08 1.17 0.67 0.35 0.64 0.56 0.60 0.71 0.68 0.44 0.24 0.36 0.49 0.32 0.20 0.17 0.08 0.08 0.08 0.16 0.23 0.26 0.44 0.75 0.98 0.87 0.48 0.29 0.61 0.71 0.80 0.72 0.51 0.57 0.65 0.52
2.15 1.36 0.99 1.30 1.17 1.71 1.60 1.14 1.24 1.68 0.83 0.33 0.29 0.34 0.40 0.52 0.61 0.67 0.24 0.32 0.44 0.26 0.22 0.09 0.05 0.03 0.04 0.09 0.09 0.09 0.16 0.49 0.96 0.64 0.27 0.47 0.30 0.20 0.51 0.40 0.40 0.41 0.33 0.26
2.33 1.45 0.68 0.78 0.94 1.30 1.28 1.01 1.39 1.91 1.27 0.33 0.24 0.20 0.33 0.48 0.58 0.58 0.34 0.24 0.27 0.19 0.38 0.52 0.50 0.29 0.20 0.11 0.06 0.06 0.14 0.53 1.06 0.73 0.35 0.19 0.09 0.05 0.13 0.26 0.36 0.19 0.16 0.11
1.89 2.11 1.63 1.63 1.89 2.03 1.86 1.25 1.42 1.88 1.89 0.60 0.24 0.21 0.28 0.61 0.79 0.73 0.52 0.40 0.44 0.41 0.65 0.90 0.69 0.61 0.29 0.16 0.14 0.05 0.12 0.43 0.82 0.54 0.58 0.22 0.19 0.02 0.01 0.05 0.36 0.04 0.09 0.12
1.74 1.52 1.37 1.15 1.22 1.47 1.91 1.55 1.97 2.30 2.32 0.62 0.21 0.41 0.55 0.76 1.27 1.42 0.74 0.61 0.83 0.62 0.74 0.87 0.68 0.41 0.17 0.28 0.19 0.13 0.19 0.48 0.81 0.48 0.67 0.21 0.10 0.02 0.02 0.27 0.40 0.05 0.09 0.14
1.43 1.22 1.13 1.13 1.13 1.39 1.88 1.43 1.86 2.38 2.45 0.86 0.32 0.38 0.74 0.87 1.22 1.76 1.05 1.04 1.22 1.22 1.10 0.97 0.62 0.48 0.34 0.27 0.20 0.32 0.55 0.68 0.48 0.47 0.48 0.28 0.06 0.18 0.33 0.33 0.21 0.08 0.17 0.09
1.19 1.06 0.97 0.99 0.95 1.09 1.51 1.18 1.15 1.69 2.09 0.98 0.32 0.31 0.49 0.77 1.00 1.72 1.68 1.25 0.87 1.09 1.19 1.09 0.74 0.48 0.44 0.33 0.30 0.29 0.62 0.55 0.62 0.47 0.28 0.16 0.19 0.53 0.50 0.53 0.56 0.26 0.32 0.24
0.82 0.81 0.78 0.81 0.86 1.03 1.44 1.15 0.75 1.02 1.38 0.69 0.34 0.24 0.31 0.58 0.78 1.37 2.67 1.57 1.33 1.37 1.26 1.49 1.23 0.88 0.32 0.31 0.46 0.39 0.25 0.28 0.54 0.62 0.54 0.41 0.53 0.62 0.52 0.59 0.67 0.57 0.49 0.35
0.96 0.89 0.82 0.68 0.68 0.77 1.13 0.79 0.67 0.84 1.21 0.96 0.40 0.12 0.14 0.16 0.36 0.87 1.66 2.14 1.84 2.08 1.83 2.29 1.61 0.89 0.53 0.41 0.55 0.42 0.45 0.41 0.44 0.59 0.78 0.77 0.45 0.59 0.72 0.69 0.62 0.93 0.78 0.67
0.99 0.95 0.91 0.69 0.74 0.88 0.88 0.44 0.47 0.54 1.18 1.19 0.45 0.11 0.04 0.05 0.16 0.34 0.84 1.59 2.25 2.46 2.78 2.53 1.73 1.04 0.78 0.73 0.61 0.82 1.10 1.44 1.50 1.10 1.05 1.69 1.56 1.25 0.98 0.91 1.21 1.51 1.09 0.80
1.13 1.11 1.00 0.86 0.96 1.43 1.17 1.04 0.66 0.67 1.12 1.94 0.86 0.18 0.07 0.09 0.23 0.44 0.61 1.01 1.88 2.44 2.39 1.97 1.57 1.10 1.08 1.25 0.94 0.95 1.13 1.39 1.89 1.93 1.72 1.97 1.89 1.72 1.75 1.86 1.98 1.79 1.74 1.72
1.31 1.37 1.19 1.05 1.38 1.42 1.39 1.14 0.70 0.94 1.62 2.23 1.31 0.42 0.13 0.22 0.34 0.58 0.76 1.01 1.34 1.73 2.10 1.47 0.93 0.87 1.18 1.26 1.31 1.38 1.48 1.84 1.71 1.77 1.58 1.68 1.98 2.51 2.22 2.14 2.18 1.61 1.55 1.57
1.42 1.34 1.15 1.30 1.54 1.34 1.05 0.84 0.99 1.06 1.44 2.02 2.06 0.79 0.27 0.47 0.84 0.94 0.88 1.43 1.30 1.32 1.34 1.05 0.71 0.75 1.12 1.51 1.30 1.25 1.24 1.09 1.19 1.56 1.61 1.95 1.57 1.31 1.43 1.38 1.09 0.74 0.90 0.83
1.40 1.27 1.29 1.46 0.97 0.64 0.55 0.98 1.34 1.26 1.81 2.51 1.34 0.72 0.49 0.47 0.84 0.99 1.46 1.27 1.85 1.47 1.28 0.76 0.83 1.19 1.69 1.61 1.36 1.21 1.20 1.46 1.70 1.14 0.90 0.72 0.76 0.71 0.65 0.46 0.39 0.41 0.45 0.33
1.85 1.63 1.52 1.27 0.68 0.89 1.30 1.58 1.85 2.30 2.50 1.91 1.06 0.46 0.72 0.74 0.82 1.03 1.73 1.62 1.50 1.62 1.02 0.77 1.26 1.29 1.08 1.17 1.30 1.19 1.03 0.94 0.73 0.50 0.52 0.40 0.31 0.21 0.15 0.12 0.13 0.10 0.08 0.07
2.17 1.77 1.18 0.88 1.20 1.82 1.79 2.17 1.85 1.59 1.71 1.13 0.61 0.42 0.68 0.81 1.49 1.46 1.49 1.85 1.22 1.13 0.77 0.91 0.86 0.82 1.00 0.93 0.83 0.73 0.61 0.52 0.44 0.32 0.24 0.17 0.15 0.08 0.05 0.04 0.06 0.06 0.06 0.08
1.71 1.53 1.72 1.56 1.88 2.00 1.54 1.33 0.99 0.99 0.84 0.56 0.46 0.47 0.66 1.10 1.48 1.84 1.91 1.54 1.54 1.18 0.90 1.07 0.74 0.91 0.85 0.78 0.62 0.41 0.32 0.29 0.19 0.07 0.05 0.04 0.05 0.05 0.05 0.07 0.11 0.13 0.13 0.11
2.21 2.54 2.60 1.62 1.55 1.43 0.97 0.49 0.49 0.68 0.71 0.57 0.57 0.74 0.68 0.94 1.56 1.85 2.02 2.04 1.55 1.31 1.54 1.07 1.02 1.04 0.77 0.55 0.36 0.20 0.13 0.12 0.10 0.09 0.07 0.06 0.06 0.05 0.09 0.13 0.12 0.13 0.09 0.09
4.05 3.43 2.55 1.09 0.95 0.51 0.51 0.41 0.39 0.35 0.30 0.38 0.67 0.68 0.66 0.77 1.20 1.42 1.47 1.28 1.02 1.08 0.91 0.89 1.25 1.05 0.64 0.35 0.31 0.32 0.30 0.25 0.17 0.15 0.15 0.21 0.15 0.08 0.07 0.12 0.16 0.17 0.12 0.09
3.92 2.60 1.38 0.51 0.22 0.19 0.18 0.25 0.32 0.26 0.36 0.59 0.60 0.58 0.52 0.53 0.91 0.88 1.06 1.04 0.75 0.68 0.99 1.12 0.97 0.92 0.70 0.47 0.50 0.59 0.81 0.88 0.67 0.50 0.46 0.45 0.34 0.30 0.26 0.19 0.15 0.13 0.11 0.10
3.84 2.19 0.72 0.19 0.13 0.09 0.10 0.16 0.24 0.19 0.31 0.56 0.76 0.74 0.72 0.58 0.62 0.78 0.62 0.65 0.85 1.09 0.97 0.61 0.36 0.48 0.52 0.42 0.43 0.49 0.69 0.85 0.85 0.61 0.47 0.50 0.54 0.52 0.44 0.29 0.29 0.26 0.20 0.16
3.68 1.07 0.11 0.09 0.13 0.14 0.13 0.13 0.14 0.18 0.43 0.68 1.24 1.41 0.78 0.90 0.93 0.55 0.41 0.75 0.86 0.70 0.45 0.28 0.38 0.44 0.39 0.32 0.24 0.24 0.28 0.29 0.31 0.27 0.25 0.28 0.29 0.40 0.38 0.29 0.30 0.32 0.29 0.16